Alpena, MI

8:15 AM EDT on June 28, 2017 (GMT -0400)
Alpena County Regional

Weather History for KAPN - October, 2010

Change the Weather History Date:

Monday, October 4, 2010

  Actual Average Record
Temperature  
Mean Temperature 44 °F 51 °F  
Max Temperature 59 °F 61 °F 86 °F (1926)
Min Temperature 28 °F 40 °F 26 °F (1961)
Degree Days  
Heating Degree Days 21 15  
Month to date heating degree days 77 56  
Since 1 July heating degree days 363 413  
Cooling Degree Days 0 0  
Month to date cooling degree days 0 0  
Year to date cooling degree days 447 289  
Moisture  
Dew Point 32 °F    
Average Humidity 66    
Maximum Humidity 92    
Minimum Humidity 39    
Precipitation  
Precipitation 0.00 in 0.09 in 1.59 in (1991)
Month to date precipitation 0.01 0.38  
Year to date precipitation 22.75 22.08  
Snow  
Snow 0.00 in 0.00 in 1.30 in (1980)
Month to date snowfall 0.0 0.0  
Since 1 July snowfall 0.0 0.0  
Snow Depth 0.00 in    
Sea Level Pressure  
Sea Level Pressure 30.40 in    
Wind  
Wind Speed 3 mph (NNW)    
Max Wind Speed 10 mph    
Max Gust Speed 13 mph    
Visibility 10 miles    
Events      
T = Trace of Precipitation, MM = Missing Value Source: NWS Daily Summary

Daily Weather History Graph

Daily Weather History Graph

Search for Another Location

Airport or City:

Trip Planner

Search our weather history database for the weather conditions in past years. The results will help you decide how hot, cold, wet, or windy it might be!

Date:

Astronomy

Oct. 04, 2010 Rise Set
Actual Time 7:35 AM EDT 7:09 PM EDT
Civil Twilight 7:06 AM EDT 7:38 PM EDT
Nautical Twilight 6:32 AM EDT 8:12 PM EDT
Astronomical Twilight 5:58 AM EDT 8:46 PM EDT
Moon 3:33 AM EDT (10/4) 5:14 PM EDT (10/4)
Length of Visible Light 12h 31m
Length of Day
11h 33m
Waning Crescent, 14% of the Moon is Illuminated
Oct 4
Waning Crescent
Oct 7
New
Oct 14
First Quarter
Oct 22
Full
Oct 30
Last Quarter

Hourly Weather History & Observations

Time (EDT) Temp. Windchill Dew Point Humidity Pressure Visibility Wind Dir Wind Speed Gust Speed Precip Events Conditions
12:54 AM 30.0 °F - 28.0 °F 92% 30.43 in 10.0 mi Calm Calm - N/A   Clear
1:54 AM 28.9 °F - 27.0 °F 92% 30.43 in 10.0 mi Calm Calm - N/A   Clear
2:54 AM 30.0 °F - 28.0 °F 92% 30.44 in 10.0 mi Calm Calm - N/A   Clear
3:54 AM 30.0 °F - 28.0 °F 92% 30.43 in 10.0 mi Calm Calm - N/A   Clear
4:54 AM 30.0 °F - 28.0 °F 92% 30.43 in 10.0 mi Calm Calm - N/A   Clear
5:54 AM 28.9 °F - 27.0 °F 92% 30.44 in 10.0 mi Calm Calm - N/A   Scattered Clouds
6:54 AM 28.9 °F - 27.0 °F 92% 30.45 in 10.0 mi Calm Calm - N/A   Partly Cloudy
7:54 AM 30.0 °F - 27.0 °F 88% 30.46 in 10.0 mi Calm Calm - N/A   Clear
8:54 AM 35.1 °F - 30.9 °F 85% 30.46 in 10.0 mi Calm Calm - N/A   Partly Cloudy
9:54 AM 43.0 °F 40.3 °F 34.0 °F 71% 30.46 in 10.0 mi NW 4.6 mph - N/A   Clear
10:54 AM 50.0 °F - 37.9 °F 63% 30.45 in 10.0 mi NNW 6.9 mph - N/A   Clear
11:54 AM 53.1 °F - 35.1 °F 50% 30.44 in 10.0 mi NE 4.6 mph - N/A   Clear
12:54 PM 55.0 °F - 34.0 °F 45% 30.42 in 10.0 mi North 5.8 mph - N/A   Clear
1:54 PM 57.9 °F - 35.1 °F 42% 30.40 in 10.0 mi NNE 8.1 mph - N/A   Clear
2:54 PM 57.0 °F - 34.0 °F 42% 30.38 in 10.0 mi North 4.6 mph - N/A   Clear
3:54 PM 57.0 °F - 32.0 °F 39% 30.37 in 10.0 mi NNE 8.1 mph - N/A   Clear
4:54 PM 55.9 °F - 33.1 °F 42% 30.35 in 10.0 mi North 6.9 mph - N/A   Clear
5:54 PM 55.9 °F - 35.1 °F 45% 30.35 in 10.0 mi North 5.8 mph - N/A   Clear
6:54 PM 48.9 °F - 36.0 °F 61% 30.34 in 10.0 mi North 4.6 mph - N/A   Clear
7:54 PM 44.1 °F - 36.0 °F 73% 30.33 in 10.0 mi Calm Calm - N/A   Clear
8:54 PM 39.0 °F - 35.1 °F 86% 30.34 in 10.0 mi Calm Calm - N/A   Clear
9:54 PM 37.0 °F - 35.1 °F 93% 30.33 in 10.0 mi Calm Calm - N/A   Clear
10:54 PM 35.1 °F 31.0 °F 33.1 °F 92% 30.34 in 10.0 mi West 4.6 mph - N/A   Clear
11:54 PM 35.1 °F 32.2 °F 32.0 °F 89% 30.33 in 10.0 mi West 3.5 mph - N/A   Clear